Weather History for Kiruna, Sweden

Change the Weather History Date:

Friday, February 15, 2013

  Actual Average Record
Temperature  
Mean Temperature 22 °F -  
Max Temperature 24 °F - - ()
Min Temperature 19 °F - - ()
Degree Days  
Heating Degree Days 44    
Moisture  
Dew Point 17 °F    
Average Humidity 82    
Maximum Humidity 86    
Minimum Humidity 74    
Precipitation  
Precipitation 0.00 in - - ()
Sea Level Pressure  
Sea Level Pressure 30.03 in    
Wind  
Wind Speed 15 mph ()    
Max Wind Speed 22 mph    
Max Gust Speed -    
Visibility 6.2 miles    
Events      
T = Trace of Precipitation, MM = Missing Value Source: Averaged Metar Reports

Daily Weather History Graph

Daily Weather History Graph

Search for Another Location

Airport:

Trip Planner

Search our weather history database for the weather conditions in past years. The results will help you decide how hot, cold, wet, or windy it might be!

Date:

Astronomy

Feb. 15, 2013 Rise Set
Actual Time 7:55 AM CET 3:51 PM CET
Civil Twilight 6:54 AM CET 4:52 PM CET
Nautical Twilight 5:49 AM CET 5:57 PM CET
Astronomical Twilight 4:45 AM CET 7:01 PM CET
Moon 7:25 AM CET (2/15) No Moon Set
Length of Visible Light 9h 58m
Length of Day
7h 56m
Waxing Crescent, 28% of the Moon is Illuminated
Feb 15
Waxing Crescent
Feb 17
First Quarter
Feb 25
Full
Mar 4
Last Quarter
Mar 11
New

Hourly Weather History & Observations

Time (CET) Temp. Windchill Dew Point Humidity Pressure Visibility Wind Dir Wind Speed Gust Speed Precip Events Conditions
12:20 AM 24.8 °F 11.5 °F 19.4 °F 80% 30.09 in 6.2 mi SSW 17.3 mph - N/A   Overcast
12:50 AM 24.8 °F 10.7 °F 19.4 °F 80% 30.06 in 6.2 mi SSW 19.6 mph - N/A   Overcast
1:20 AM 24.8 °F 10.3 °F 19.4 °F 80% 30.06 in 6.2 mi SSW 20.7 mph - N/A   Overcast
1:50 AM 24.8 °F 12.4 °F 19.4 °F 80% 30.06 in 6.2 mi SSW 15.0 mph - N/A   Overcast
2:20 AM 24.8 °F 10.0 °F 19.4 °F 80% 30.06 in 6.2 mi SSW 21.9 mph - N/A   Overcast
2:50 AM 24.8 °F 11.5 °F 19.4 °F 80% 30.06 in 6.2 mi SSW 17.3 mph - N/A   Overcast
3:20 AM 24.8 °F 10.7 °F 17.6 °F 74% 30.06 in 6.2 mi SSW 19.6 mph - N/A   Overcast
3:50 AM 23.0 °F 10.1 °F 17.6 °F 80% 30.06 in 6.2 mi SSW 15.0 mph - N/A   Overcast
4:20 AM 23.0 °F 8.3 °F 17.6 °F 80% 30.06 in 6.2 mi SSW 19.6 mph - N/A   Overcast
4:50 AM 23.0 °F 8.7 °F 15.8 °F 74% 30.06 in 6.2 mi SSW 18.4 mph - N/A   Overcast
5:20 AM 21.2 °F 8.3 °F 15.8 °F 80% 30.06 in 6.2 mi SSW 13.8 mph - N/A   Overcast
5:50 AM 21.2 °F 8.3 °F 15.8 °F 80% 30.04 in 6.2 mi SSW 13.8 mph - N/A   Overcast
6:20 AM 21.2 °F 6.8 °F 15.8 °F 80% 30.04 in 6.2 mi SSW 17.3 mph - N/A   Overcast
6:50 AM 21.2 °F 7.8 °F 15.8 °F 80% 30.04 in 6.2 mi SSW 15.0 mph - N/A   Overcast
7:20 AM 21.2 °F 7.8 °F 15.8 °F 80% 30.04 in 6.2 mi SSW 15.0 mph - N/A   Overcast
7:50 AM 21.2 °F 7.8 °F 15.8 °F 80% 30.04 in 6.2 mi SSW 15.0 mph - N/A   Overcast
8:20 AM 21.2 °F 9.5 °F 15.8 °F 80% 30.04 in 6.2 mi South 11.5 mph - N/A   Overcast
8:50 AM 21.2 °F 6.8 °F 15.8 °F 80% 30.04 in 6.2 mi SSW 17.3 mph - N/A   Overcast
9:20 AM 21.2 °F 8.9 °F 15.8 °F 80% 30.04 in 6.2 mi South 12.7 mph - N/A   Overcast
9:50 AM 21.2 °F 9.5 °F 15.8 °F 80% 30.04 in 5.6 mi SSW 11.5 mph - N/A   Overcast
10:20 AM 21.2 °F 6.8 °F 15.8 °F 80% 30.04 in 6.2 mi SSW 17.3 mph - N/A   Mostly Cloudy
10:50 AM 19.4 °F 6.0 °F 15.8 °F 86% 30.04 in 6.2 mi SSW 13.8 mph - N/A   Mostly Cloudy
11:20 AM 21.2 °F 7.8 °F 15.8 °F 80% 30.04 in 6.2 mi SSW 15.0 mph - N/A   Overcast
11:50 AM 21.2 °F 7.3 °F 15.8 °F 80% 30.04 in 6.2 mi SSW 16.1 mph - N/A   Overcast
12:20 PM 21.2 °F 7.3 °F 15.8 °F 80% 30.04 in 6.2 mi SSW 16.1 mph - N/A   Overcast
12:50 PM 21.2 °F 7.3 °F 15.8 °F 80% 30.04 in 6.2 mi SSW 16.1 mph - N/A   Overcast
1:20 PM 21.2 °F 7.3 °F 17.6 °F 86% 30.04 in 6.2 mi SSW 16.1 mph - N/A   Overcast
1:50 PM 21.2 °F 7.8 °F 17.6 °F 86% 30.04 in 6.2 mi SSW 15.0 mph - N/A   Overcast
2:20 PM 21.2 °F 7.8 °F 17.6 °F 86% 30.04 in 6.2 mi SSW 15.0 mph - N/A   Overcast
2:50 PM 21.2 °F 8.3 °F 17.6 °F 86% 30.04 in 6.2 mi SSW 13.8 mph - N/A   Overcast
3:20 PM 21.2 °F 9.5 °F 17.6 °F 86% 30.01 in 6.2 mi SSW 11.5 mph - N/A   Overcast
3:50 PM 21.2 °F 10.1 °F 17.6 °F 86% 30.01 in 6.2 mi SSW 10.4 mph - N/A   Overcast
4:20 PM 21.2 °F 10.1 °F 17.6 °F 86% 30.01 in 6.2 mi SSW 10.4 mph - N/A   Overcast
4:50 PM 21.2 °F 7.8 °F 17.6 °F 86% 30.01 in 6.2 mi SSW 15.0 mph - N/A   Overcast
5:20 PM 21.2 °F 8.9 °F 17.6 °F 86% 30.01 in 6.2 mi SSW 12.7 mph - N/A   Overcast
5:50 PM 21.2 °F 8.3 °F 15.8 °F 80% 30.01 in 6.2 mi SSW 13.8 mph - N/A   Overcast
6:20 PM 21.2 °F 8.3 °F 17.6 °F 86% 29.98 in 6.2 mi SSW 13.8 mph - N/A   Overcast
6:50 PM 21.2 °F 8.3 °F 17.6 °F 86% 30.01 in 6.2 mi SSW 13.8 mph - N/A   Overcast
7:20 PM 21.2 °F 7.8 °F 17.6 °F 86% 29.98 in 6.2 mi SSW 15.0 mph - N/A   Overcast
7:50 PM 23.0 °F 10.1 °F 17.6 °F 80% 29.98 in 6.2 mi SSW 15.0 mph - N/A   Overcast
8:20 PM 23.0 °F 11.7 °F 17.6 °F 80% 29.98 in 6.2 mi SSW 11.5 mph - N/A   Overcast
8:50 PM 23.0 °F 11.1 °F 17.6 °F 80% 29.98 in 6.2 mi SSW 12.7 mph - N/A   Overcast
9:20 PM 23.0 °F 11.1 °F 19.4 °F 86% 29.98 in 6.2 mi SSW 12.7 mph - N/A   Overcast
9:50 PM 23.0 °F 11.1 °F 19.4 °F 86% 29.98 in 6.2 mi SSW 12.7 mph - N/A   Overcast
10:20 PM 21.2 °F 8.3 °F 17.6 °F 86% 29.98 in 6.2 mi South 13.8 mph - N/A   Overcast
10:50 PM 21.2 °F 8.3 °F 17.6 °F 86% 29.98 in 6.2 mi South 13.8 mph - N/A   Overcast
11:50 PM 21.2 °F 7.3 °F 15.8 °F 80% 29.98 in 6.2 mi SSW 16.1 mph - N/A   Overcast